CZ-2C R/B

Satellite information

Favourite Embed

Satellite Type and Status

ROCKET BODYIN ORBIT

Key statistics

Satellite CZ-2C R/B at a glance.

Uptime

2998

Days in orbit

Revolutions

≈ 14.9

Per day

Orbit

LEO

Low Earth Orbit

Inclination

34.9

Latest

Satellite identification and parameters

Extended collection of information and parameters for CZ-2C R/B.

Object identification

Identified? True

Debris? False

Object name: CZ-2C R/B

International designator: 2017-058D

Object number (NORAD): 42948

Object ID (CCSDS): 42948

Country: PEOPLES REPUBLIC OF CHINA (PRC)

Current information (Y/N): Y

RCS size: LARGE

Orbital parameters

Period: 96.915 minutes

Inclination: 34.9271 deg

SMA: 6989.084 km

Apoapsis: 652.333 km

Periapsis: 569.565 km

RAAN: 13.5407 deg

Eccentricy: 0.00592124

Argument of periapsis: 120.7285 deg

Mean anomaly: 239.9266 deg

Mean motion: 14.85841143 rev/day

Mean motion (dot): 0.00001808 rev/day2

B* drag term: 0.00020045167 1/REarth

Two-line elements (TLE)

Creation date: Dec. 14, 2025, 3:07 a.m.

Reference frame: TEME

Reference center: EARTH

Epoch: Dec. 13, 2025, 10:32 a.m. UTC

TLE line 0: 0 CZ-2C R/B

TLE line 1: 1 42948U 17058D 25347.43929845 .00001808 00000-0 20045-3 0 9994

TLE line 2: 2 42948 34.9271 13.5407 0059212 120.7285 239.9266 14.85841143444580

Live tracking on map

Real-time ground track for satellite CZ-2C R/B.

In-orbit conjunctions

A list of the most updated potential collisions computed for object CZ-2C R/B.

Target Orbit TCA Probability of collision Miss distance Type
SL-16 DEB LEO 2025-02-24 20:04:58 0.0001677084 412.0 (m) DEBRIS
DELTA 1 DEB LEO 2025-01-23 00:05:51 0.001518028 264.0 (m) DEBRIS

Associated space launch

CZ-2C R/B was lifted into orbit during the mission ‘Long March 2C | 3 x Yaogan-30-01’, on board a Long March 2 space rocket.

The launch took place on Sept. 29, 2017, 4:21 a.m. from Launch Complex 3 (LC-3/LA-1).

For more information about the launch, click the button.

Launch to space Long March 2C | 3 x Yaogan-30-01
Long March 2C | 3 x Yaogan-30-01

Agency: N/A

Status: Launch Successful

Launch date: Sept. 29, 2017, 4:21 a.m. UTC

Rocket: Long March 2

Launch pad: Launch Complex 3 (LC-3/LA-1)

Location: Xichang Satellite Launch Center, People's Republic of China

...

Latest news about this satellite

There are no fresh news available about this satellite. Check back as we update our databases every day.


Newsletter sign-up

Weekly statistics, charts and insights to help you stay on top of the space industry.